Weather History for KOZW - January, 2014

Change the Weather History Date:

Sunday, January 19, 2014

  Actual Average Record
Temperature  
Mean Temperature 20 °F -  
Max Temperature 29 °F 27 °F 47 °F (2013)
Min Temperature 10 °F 14 °F 6 °F (2009)
Degree Days  
Heating Degree Days 46    
Moisture  
Dew Point 17 °F    
Average Humidity 84    
Maximum Humidity 95    
Minimum Humidity 70    
Precipitation  
Precipitation 0.00 in - - ()
Sea Level Pressure  
Sea Level Pressure 29.60 in    
Wind  
Wind Speed 9 mph (SW)    
Max Wind Speed 24 mph    
Max Gust Speed 32 mph    
Visibility 8 miles    
Events Snow    
Averages and records for this station are not official NWS values.
T = Trace of Precipitation, MM = Missing Value Source: NWS Daily Summary

Daily Weather History Graph

Daily Weather History Graph

Search for Another Location

Airport or City:

Trip Planner

Search our weather history database for the weather conditions in past years. The results will help you decide how hot, cold, wet, or windy it might be!

Date:

Astronomy

Jan. 19, 2014 Rise Set
Actual Time 8:01 AM EST 5:32 PM EST
Civil Twilight 7:30 AM EST 6:03 PM EST
Nautical Twilight 6:55 AM EST 6:38 PM EST
Astronomical Twilight 6:21 AM EST 7:11 PM EST
Moon 9:15 PM EST (1/19) 9:25 AM EST (1/19)
Length of Visible Light 10h 33m
Length of Day
9h 31m
Waning Gibbous, 89% of the Moon is Illuminated
Jan 19
Waning Gibbous
Jan 24
Last Quarter
Jan 30
New
Feb 6
First Quarter
Feb 14
Full

Hourly Weather History & Observations

Time (EST) Temp. Windchill Dew Point Humidity Pressure Visibility Wind Dir Wind Speed Gust Speed Precip Events Conditions
12:14 AM 14.7 °F 9.0 °F 12.2 °F 90% 29.76 in 7.0 mi SSW 3.5 mph - N/A Snow Light Snow
12:35 AM 14.7 °F 9.0 °F 12.2 °F 90% 29.76 in 5.0 mi SSW 3.5 mph - N/A Snow Light Snow
12:55 AM 14.7 °F - 12.2 °F 90% 29.76 in 5.0 mi Calm Calm - N/A Snow Light Snow
1:14 AM 14.5 °F 8.8 °F 12.2 °F 90% 29.75 in 5.0 mi West 3.5 mph - N/A Snow Light Snow
1:35 AM 14.5 °F - 12.0 °F 90% 29.74 in 3.0 mi Calm Calm - N/A Snow Light Snow
1:55 AM 14.0 °F 8.2 °F 11.8 °F 91% 29.73 in 4.0 mi South 3.5 mph - N/A Snow Light Snow
2:15 AM 13.1 °F 7.1 °F 11.1 °F 92% 29.73 in 5.0 mi SSW 3.5 mph - N/A   Overcast
2:35 AM 12.7 °F 5.0 °F 10.9 °F 92% 29.72 in 5.0 mi SSW 4.6 mph - N/A   Scattered Clouds
2:55 AM 11.8 °F 5.7 °F 10.2 °F 93% 29.73 in 5.0 mi SW 3.5 mph - N/A   Clear
3:15 AM 11.3 °F 5.1 °F 10.2 °F 95% 29.72 in 5.0 mi SSW 3.5 mph - N/A   Clear
3:35 AM 10.8 °F 2.7 °F 9.1 °F 93% 29.72 in 5.0 mi SSW 4.6 mph - N/A   Clear
3:55 AM 10.2 °F 2.0 °F 8.4 °F 92% 29.72 in 5.0 mi SW 4.6 mph - N/A   Clear
4:15 AM 10.4 °F 0.8 °F 8.6 °F 92% 29.71 in 5.0 mi SW 5.8 mph - N/A   Clear
4:35 AM 12.0 °F 1.5 °F 10.4 °F 93% 29.70 in 5.0 mi SW 6.9 mph - N/A   Mostly Cloudy
4:55 AM 13.6 °F 3.5 °F 12.0 °F 93% 29.70 in 7.0 mi SW 6.9 mph - N/A   Overcast
5:15 AM 14.4 °F 4.3 °F 13.1 °F 95% 29.70 in 7.0 mi SW 6.9 mph - N/A   Overcast
5:35 AM 14.9 °F 4.0 °F 13.6 °F 95% 29.70 in 7.0 mi SW 8.1 mph - N/A   Overcast
5:55 AM 15.8 °F 7.2 °F 14.2 °F 93% 29.69 in 7.0 mi SW 5.8 mph - N/A   Overcast
6:15 AM 16.2 °F 5.5 °F 14.4 °F 93% 29.68 in 7.0 mi SW 8.1 mph - N/A   Overcast
6:35 AM 16.3 °F 5.7 °F 14.0 °F 90% 29.66 in 7.0 mi SSW 8.1 mph - N/A   Overcast
6:55 AM 16.5 °F 5.1 °F 14.4 °F 91% 29.66 in 7.0 mi SW 9.2 mph - N/A   Mostly Cloudy
7:14 AM 17.2 °F 6.0 °F 14.9 °F 91% 29.66 in 7.0 mi SW 9.2 mph - N/A   Mostly Cloudy
7:35 AM 17.8 °F 5.9 °F 15.3 °F 90% 29.65 in 10.0 mi SW 10.4 mph 17.3 mph N/A   Mostly Cloudy
7:55 AM 18.5 °F 5.5 °F 15.8 °F 89% 29.64 in 10.0 mi SW 12.7 mph - N/A   Mostly Cloudy
8:14 AM 18.9 °F 5.3 °F 16.2 °F 89% 29.64 in 7.0 mi SW 13.8 mph 18.4 mph N/A   Overcast
8:35 AM 19.6 °F 6.2 °F 16.9 °F 89% 29.63 in 7.0 mi SW 13.8 mph 19.6 mph N/A   Overcast
8:55 AM 20.3 °F 7.2 °F 17.4 °F 89% 29.63 in 7.0 mi SW 13.8 mph 23.0 mph N/A   Overcast
9:15 AM 20.7 °F 5.7 °F 17.6 °F 88% 29.62 in 7.0 mi SW 18.4 mph 21.9 mph N/A   Overcast
9:35 AM 21.0 °F 6.6 °F 17.6 °F 87% 29.62 in 7.0 mi SW 17.3 mph 25.3 mph N/A   Overcast
9:55 AM 21.2 °F 6.8 °F 17.4 °F 85% 29.60 in 7.0 mi SW 17.3 mph 24.2 mph N/A   Mostly Cloudy
10:15 AM 21.9 °F 7.8 °F 17.6 °F 83% 29.60 in 7.0 mi SW 17.3 mph 27.6 mph N/A   Mostly Cloudy
10:35 AM 22.8 °F 8.5 °F 17.6 °F 80% 29.59 in 10.0 mi SW 18.4 mph 23.0 mph N/A   Mostly Cloudy
10:55 AM 24.1 °F 9.0 °F 17.6 °F 76% 29.57 in 7.0 mi SW 21.9 mph 28.8 mph N/A   Mostly Cloudy
11:15 AM 24.8 °F 11.9 °F 16.9 °F 72% 29.57 in 7.0 mi SW 16.1 mph 24.2 mph N/A   Scattered Clouds
11:35 AM 25.0 °F 11.7 °F 16.5 °F 70% 29.56 in 7.0 mi SSW 17.3 mph 26.5 mph N/A   Mostly Cloudy
11:55 AM 25.3 °F 11.0 °F 16.7 °F 70% 29.56 in 5.0 mi SW 20.7 mph 29.9 mph N/A   Haze
12:15 PM 25.7 °F 11.5 °F 17.1 °F 70% 29.55 in 7.0 mi SW 20.7 mph 31.1 mph N/A   Scattered Clouds
12:35 PM 25.2 °F 9.8 °F 17.4 °F 72% 29.55 in 5.0 mi SW 24.2 mph 32.2 mph N/A   Haze
12:55 PM 25.0 °F 10.6 °F 17.4 °F 73% 29.56 in 5.0 mi WSW 20.7 mph 29.9 mph N/A   Haze
1:15 PM 24.8 °F 11.9 °F 17.6 °F 74% 29.55 in 5.0 mi SW 16.1 mph 29.9 mph N/A   Haze
1:35 PM 24.6 °F 10.9 °F 17.6 °F 75% 29.54 in 5.0 mi WSW 18.4 mph 29.9 mph N/A   Haze
1:55 PM 24.8 °F 10.0 °F 17.8 °F 75% 29.53 in 10.0 mi SW 21.9 mph 29.9 mph N/A   Overcast
2:15 PM 24.4 °F 10.2 °F 17.8 °F 76% 29.53 in 7.0 mi WSW 19.6 mph 27.6 mph N/A   Overcast
2:35 PM 24.3 °F 10.0 °F 17.8 °F 76% 29.54 in 7.0 mi WSW 19.6 mph 28.8 mph N/A   Overcast
2:55 PM 24.3 °F 10.8 °F 18.1 °F 77% 29.53 in 7.0 mi WSW 17.3 mph 26.5 mph N/A   Overcast
3:15 PM 24.3 °F 11.2 °F 18.1 °F 77% 29.53 in 10.0 mi SW 16.1 mph 24.2 mph N/A   Overcast
3:35 PM 24.3 °F 10.4 °F 18.3 °F 78% 29.54 in 10.0 mi SW 18.4 mph 24.2 mph N/A   Overcast
3:55 PM 24.6 °F 11.7 °F 18.5 °F 78% 29.54 in 10.0 mi SW 16.1 mph 24.2 mph N/A   Overcast
4:15 PM 24.8 °F 12.4 °F 18.9 °F 78% 29.55 in 10.0 mi WSW 15.0 mph 20.7 mph N/A   Overcast
4:35 PM 25.0 °F 13.6 °F 18.7 °F 77% 29.55 in 10.0 mi SW 12.7 mph - N/A   Overcast
4:55 PM 25.2 °F 15.7 °F 18.5 °F 76% 29.54 in 10.0 mi SW 9.2 mph - N/A   Overcast
5:15 PM 25.2 °F 14.4 °F 18.9 °F 77% 29.54 in 10.0 mi SSW 11.5 mph 17.3 mph N/A   Overcast
5:35 PM 25.2 °F 14.4 °F 19.0 °F 78% 29.54 in 10.0 mi SSW 11.5 mph - N/A   Overcast
5:55 PM 25.2 °F 13.9 °F 19.2 °F 78% 29.54 in 10.0 mi SSW 12.7 mph - N/A   Overcast
6:15 PM 25.3 °F 13.1 °F 19.4 °F 78% 29.54 in 10.0 mi SSW 15.0 mph 18.4 mph N/A   Overcast
6:35 PM 25.3 °F 14.1 °F 19.6 °F 79% 29.54 in 10.0 mi SW 12.7 mph 17.3 mph N/A   Overcast
6:55 PM 25.2 °F 15.1 °F 19.8 °F 80% 29.55 in 10.0 mi SW 10.4 mph 17.3 mph N/A   Overcast
7:15 PM 25.2 °F 14.4 °F 20.1 °F 81% 29.54 in 10.0 mi SSW 11.5 mph 18.4 mph N/A   Overcast
7:35 PM 25.7 °F 16.4 °F 20.8 °F 82% 29.55 in 10.0 mi SW 9.2 mph 18.4 mph N/A   Overcast
7:55 PM 26.4 °F 16.6 °F 21.2 °F 81% 29.56 in 10.0 mi SW 10.4 mph 17.3 mph N/A   Overcast
8:15 PM 26.6 °F 18.2 °F 21.7 °F 82% 29.56 in 10.0 mi SW 8.1 mph - N/A   Overcast
8:35 PM 26.6 °F 17.5 °F 22.1 °F 83% 29.55 in 10.0 mi SW 9.2 mph - N/A   Overcast
8:55 PM 27.1 °F 17.5 °F 22.5 °F 83% 29.54 in 10.0 mi SW 10.4 mph - N/A   Overcast
9:15 PM 27.5 °F 18.6 °F 23.0 °F 83% 29.53 in 10.0 mi SW 9.2 mph 16.1 mph N/A   Overcast
9:35 PM 27.9 °F 19.8 °F 23.5 °F 84% 29.53 in 10.0 mi SW 8.1 mph - N/A   Overcast
9:55 PM 28.2 °F 21.0 °F 23.9 °F 84% 29.52 in 10.0 mi SW 6.9 mph - N/A   Overcast
10:15 PM 28.4 °F 21.2 °F 24.3 °F 84% 29.51 in 10.0 mi SSW 6.9 mph - N/A   Overcast
10:35 PM 28.6 °F 21.5 °F 24.6 °F 85% 29.50 in 10.0 mi SSW 6.9 mph - N/A   Overcast
10:55 PM 29.3 °F 21.5 °F 24.8 °F 83% 29.50 in 10.0 mi SW 8.1 mph - N/A   Overcast
11:15 PM 29.3 °F 21.5 °F 24.8 °F 83% 29.50 in 10.0 mi SW 8.1 mph - N/A   Overcast
11:35 PM 29.1 °F 21.3 °F 24.4 °F 83% 29.50 in 10.0 mi SW 8.1 mph - N/A   Overcast
11:55 PM 28.9 °F 21.9 °F 24.3 °F 83% 29.49 in 10.0 mi SW 6.9 mph - N/A   Overcast